DW2149 Weather Reports


time (UTC)temp
C
wind
direction
speed
KPH
gust
KPH
rain 1hr
cm
rain 24hr
cm
rain mn
cm
humidity
%
barometer
mb
20260503013532 22 199 0.0 0.0 0.00 0.00 0.00 51 1007.4
20260503013323 22 199 0.0 0.0 0.00 0.00 0.00 52 1007.5
20260503013118 22 199 0.0 0.0 0.00 0.00 0.00 52 1007.6
20260503012917 23 199 0.0 0.0 0.00 0.00 0.00 51 1007.6
20260503012714 23 199 0.0 0.0 0.00 0.00 0.00 51 1007.6
20260503012513 23 199 0.0 0.0 0.00 0.00 0.00 51 1007.6
20260503012305 23 199 0.0 0.0 0.00 0.00 0.00 51 1007.5
20260503012055 23 199 0.0 0.0 0.00 0.00 0.00 48 1007.5
20260503011849 23 199 0.0 0.0 0.00 0.00 0.00 43 1007.5
20260503011637 23 199 0.0 1.6 0.00 0.00 0.00 44 1007.6
20260503011426 23 199 0.0 0.0 0.00 0.00 0.00 43 1007.6
20260503011219 23 199 0.0 0.0 0.00 0.00 0.00 43 1007.6
20260503011013 23 199 0.0 0.0 0.00 0.00 0.00 44 1007.6
20260503010806 23 199 0.0 0.0 0.00 0.00 0.00 45 1007.6
20260503010555 23 199 0.0 0.0 0.00 0.00 0.00 44 1007.6
20260503010342 23 199 0.0 0.0 0.00 0.00 0.00 43 1007.6
20260503010134 23 199 0.0 0.0 0.00 0.00 0.00 43 1007.7
20260503005922 23 199 0.0 0.0 0.00 0.00 0.00 43 1007.6
20260503005712 23 199 0.0 1.6 0.00 0.00 0.00 44 1007.7
20260503005506 23 199 0.0 1.6 0.00 0.00 0.00 44 1007.8
20260503005256 23 199 0.0 1.6 0.00 0.00 0.00 43 1007.8
20260503005054 23 199 0.0 1.6 0.00 0.00 0.00 43 1007.7
20260503004852 23 199 0.0 4.8 0.00 0.00 0.00 43 1007.8
20260503004642 23 199 0.0 4.8 0.00 0.00 0.00 43 1007.7
20260503004429 23 199 0.0 4.8 0.00 0.00 0.00 43 1007.8
20260503004225 23 198 0.0 4.8 0.00 0.00 0.00 44 1007.7
20260503004016 23 199 0.0 3.2 0.00 0.00 0.00 43 1007.8
20260503003810 23 199 0.0 0.0 0.00 0.00 0.00 45 1007.8
20260503003419 23 199 0.0 4.8 0.00 0.00 0.00 42 1007.8
20260503003206 23 199 0.0 4.8 0.00 0.00 0.00 43 1007.9
20260503002955 23 199 0.0 4.8 0.00 0.00 0.00 44 1007.9
20260503002747 23 199 0.0 4.8 0.00 0.00 0.00 44 1007.9
20260503002536 23 198 0.0 1.6 0.00 0.00 0.00 44 1007.9
20260503002326 23 198 0.0 1.6 0.00 0.00 0.00 44 1007.9
20260503001935 23 198 0.0 1.6 0.00 0.00 0.00 44 1007.9
20260503001548 23 198 0.0 0.0 0.00 0.00 0.00 44 1007.9
20260503001340 23 198 0.0 0.0 0.00 0.00 0.00 44 1007.9
20260503000942 23 211 0.0 4.8 0.00 0.00 0.00 45 1007.9
20260503000734 23 264 0.0 4.8 0.00 0.00 0.00 43 1007.9
20260503000522 23 210 0.0 1.6 0.00 0.00 0.00 44 1008.0
20260503000319 23 210 0.0 1.6 0.00 0.00 0.00 44 1008.0
20260502235924 23 210 0.0 1.6 0.00 0.00 0.00 42 1008.0
20260502235714 23 210 0.0 1.6 0.00 0.00 0.00 43 1008.1
20260502235503 23 210 0.0 0.0 0.00 0.00 0.00 43 1008.1
20260502235255 23 210 0.0 0.0 0.00 0.00 0.00 43 1008.2
20260502235052 23 210 0.0 3.2 0.00 0.00 0.00 42 1008.2
20260502234840 23 210 0.0 3.2 0.00 0.00 0.00 43 1008.2
20260502234637 23 210 1.6 1.6 0.00 0.00 0.00 44 1008.2
20260502234426 23 210 1.6 9.7 0.00 0.00 0.00 43 1008.2
20260502234224 23 210 1.6 9.7 0.00 0.00 0.00 42 1008.2
20260502234018 23 210 1.6 9.7 0.00 0.00 0.00 44 1008.2
20260502233806 23 210 1.6 9.7 0.00 0.00 0.00 43 1008.2
20260502233557 23 210 0.0 9.7 0.00 0.00 0.00 43 1008.2
20260502233347 23 211 0.0 6.4 0.00 0.00 0.00 44 1008.2
20260502233137 23 167 0.0 3.2 0.00 0.00 0.00 43 1008.2
20260502232933 23 150 0.0 3.2 0.00 0.00 0.00 43 1008.2
20260502232730 23 137 0.0 3.2 0.00 0.00 0.00 44 1008.1
20260502232524 23 210 0.0 0.0 0.00 0.00 0.00 44 1008.2
20260502232318 23 210 0.0 4.8 0.00 0.00 0.00 43 1008.2
20260502232108 23 210 0.0 4.8 0.00 0.00 0.00 43 1008.3
20260502231901 23 210 0.0 4.8 0.00 0.00 0.00 43 1008.3
20260502231656 23 210 0.0 1.6 0.00 0.00 0.00 43 1008.4
20260502231443 23 210 0.0 1.6 0.00 0.00 0.00 41 1008.4
20260502231231 23 210 0.0 9.7 0.00 0.00 0.00 42 1008.5
20260502231025 23 210 0.0 4.8 0.00 0.00 0.00 42 1008.5
20260502230637 23 220 0.0 4.8 0.00 0.00 0.00 42 1008.5
20260502230245 23 223 1.6 4.8 0.00 0.00 0.00 42 1008.5
20260502230044 24 223 1.6 4.8 0.00 0.00 0.00 42 1008.5
20260502225656 23 223 1.6 9.7 0.00 0.00 0.00 44 1008.6
20260502225454 23 232 1.6 9.7 0.00 0.00 0.00 42 1008.6
20260502225249 23 236 1.6 9.7 0.00 0.00 0.00 41 1008.6
20260502225042 24 211 0.0 6.4 0.00 0.00 0.00 42 1008.7
20260502224837 24 211 0.0 6.4 0.00 0.00 0.00 41 1008.8
20260502224632 24 211 0.0 8.0 0.00 0.00 0.00 41 1008.8
20260502224430 24 211 0.0 8.0 0.00 0.00 0.00 43 1008.8
20260502224220 24 211 0.0 8.0 0.00 0.00 0.00 42 1008.8
20260502224010 24 211 1.6 8.0 0.00 0.00 0.00 42 1008.9
20260502223804 24 211 1.6 8.0 0.00 0.00 0.00 40 1009.0
20260502223551 24 211 1.6 8.0 0.00 0.00 0.00 41 1009.0
20260502223349 24 211 1.6 8.0 0.00 0.00 0.00 41 1009.1
20260502223138 25 211 1.6 8.0 0.00 0.00 0.00 43 1009.1
20260502222744 25 213 0.0 8.0 0.00 0.00 0.00 40 1009.1
20260502222541 25 213 0.0 1.6 0.00 0.00 0.00 43 1009.1
20260502222328 25 213 0.0 3.2 0.00 0.00 0.00 41 1009.1
20260502222121 25 215 1.6 11.3 0.00 0.00 0.00 40 1009.2
20260502221915 25 215 1.6 11.3 0.00 0.00 0.00 39 1009.2
20260502221525 25 215 1.6 11.3 0.00 0.00 0.00 39 1009.3
20260502221132 25 257 1.6 11.3 0.00 0.00 0.00 40 1009.3
20260502220929 25 257 1.6 11.3 0.00 0.00 0.00 40 1009.4
20260502220721 25 257 1.6 11.3 0.00 0.00 0.00 37 1009.5
20260502220140 25 215 1.6 9.7 0.00 0.00 0.00 40 1009.6
20260502215928 25 228 1.6 9.7 0.00 0.00 0.00 40 1009.6
20260502215716 25 231 3.2 9.7 0.00 0.00 0.00 40 1009.7
20260502215509 25 230 3.2 9.7 0.00 0.00 0.00 40 1009.7
20260502215305 25 221 1.6 9.7 0.00 0.00 0.00 40 1009.7
20260502215100 25 244 3.2 8.0 0.00 0.00 0.00 39 1009.7
20260502214527 24 226 1.6 8.0 0.00 0.00 0.00 39 1009.7
20260502214136 25 218 0.0 8.0 0.00 0.00 0.00 41 1009.8
20260502213931 25 210 0.0 11.3 0.00 0.00 0.00 41 1009.9
20260502213727 25 213 0.0 11.3 0.00 0.00 0.00 41 1009.9
20260502213515 25 140 0.0 11.3 0.00 0.00 0.00 42 1009.8
20260502213126 25 219 1.6 11.3 0.00 0.00 0.00 41 1010.0
20260502212733 25 219 3.2 11.3 0.00 0.00 0.00 40 1010.1
20260502212530 25 216 3.2 11.3 0.00 0.00 0.00 41 1010.1
20260502212325 25 216 3.2 11.3 0.00 0.00 0.00 40 1010.0
20260502212123 25 194 1.6 9.7 0.00 0.00 0.00 42 1010.1
20260502211912 25 187 1.6 11.3 0.00 0.00 0.00 42 1010.1
20260502211707 25 197 1.6 11.3 0.00 0.00 0.00 39 1010.1
20260502211500 25 211 1.6 11.3 0.00 0.00 0.00 41 1010.1
20260502211255 25 259 1.6 11.3 0.00 0.00 0.00 40 1010.1
20260502211045 25 258 3.2 11.3 0.00 0.00 0.00 42 1010.1
20260502210843 25 210 3.2 11.3 0.00 0.00 0.00 41 1010.2
20260502210630 25 203 3.2 11.3 0.00 0.00 0.00 41 1010.2
20260502210243 25 207 1.6 11.3 0.00 0.00 0.00 40 1010.3
20260502205701 25 234 0.0 9.7 0.00 0.00 0.00 41 1010.3
20260502205449 25 210 1.6 9.7 0.00 0.00 0.00 41 1010.4
20260502205238 25 197 0.0 1.6 0.00 0.00 0.00 43 1010.4
20260502205036 25 195 0.0 9.7 0.00 0.00 0.00 43 1010.4
20260502204647 25 191 1.6 9.7 0.00 0.00 0.00 41 1010.5
20260502204440 25 201 1.6 9.7 0.00 0.00 0.00 39 1010.4
20260502204229 25 355 1.6 9.7 0.00 0.00 0.00 41 1010.4
20260502204024 25 36 3.2 16.1 0.00 0.00 0.00 41 1010.5
20260502203822 25 204 3.2 16.1 0.00 0.00 0.00 40 1010.5
20260502203616 25 210 1.6 16.1 0.00 0.00 0.00 40 1010.4
20260502203414 25 212 1.6 16.1 0.00 0.00 0.00 41 1010.5
20260502203208 25 207 1.6 16.1 0.00 0.00 0.00 40 1010.5
20260502202957 25 201 1.6 16.1 0.00 0.00 0.00 43 1010.5
20260502202755 25 199 1.6 16.1 0.00 0.00 0.00 44 1010.6
20260502202544 24 198 1.6 16.1 0.00 0.00 0.00 44 1010.6
20260502202337 24 174 1.6 16.1 0.00 0.00 0.00 45 1010.5
20260502202124 23 203 1.6 9.7 0.00 0.00 0.00 43 1010.6
20260502201919 24 203 1.6 9.7 0.00 0.00 0.00 43 1010.6
20260502201527 24 57 1.6 9.7 0.00 0.00 0.00 43 1010.5
20260502201321 24 215 1.6 9.7 0.00 0.00 0.00 44 1010.7
20260502201119 24 195 1.6 9.7 0.00 0.00 0.00 42 1010.6
20260502200911 24 198 1.6 9.7 0.00 0.00 0.00 41 1010.6
20260502200708 25 216 1.6 9.7 0.00 0.00 0.00 42 1010.6
20260502200459 25 217 3.2 9.7 0.00 0.00 0.00 40 1010.7
20260502200253 25 207 1.6 9.7 0.00 0.00 0.00 41 1010.8
20260502200047 25 202 1.6 9.7 0.00 0.00 0.00 44 1010.8
20260502195844 25 121 1.6 9.7 0.00 0.00 0.00 42 1010.8
20260502195642 24 247 1.6 9.7 0.00 0.00 0.00 43 1010.8
20260502195437 24 215 1.6 9.7 0.00 0.00 0.00 43 1010.8
20260502195120 25 211 1.6 9.7 0.00 0.00 0.00 42 1010.8
20260502194907 25 212 1.6 9.7 0.00 0.00 0.00 45 1010.9
20260502194700 24 212 1.6 9.7 0.00 0.00 0.00 44 1010.9
20260502194449 24 215 1.6 9.7 0.00 0.00 0.00 42 1011.0
20260502194237 24 217 1.6 9.7 0.00 0.00 0.00 44 1010.9
20260502193844 24 217 1.6 9.7 0.00 0.00 0.00 42 1011.0
20260502193637 24 211 1.6 9.7 0.00 0.00 0.00 44 1011.0
20260502193431 24 211 1.6 9.7 0.00 0.00 0.00 41 1011.0
20260502193224 24 211 1.6 9.7 0.00 0.00 0.00 42 1011.1
20260502192834 24 218 1.6 9.7 0.00 0.00 0.00 44 1011.1
20260502192624 24 265 3.2 9.7 0.00 0.00 0.00 42 1011.1
20260502192423 24 233 1.6 9.7 0.00 0.00 0.00 44 1011.1
20260502192217 24 234 1.6 9.7 0.00 0.00 0.00 42 1011.1
20260502192004 24 219 1.6 8.0 0.00 0.00 0.00 46 1011.1
20260502191756 24 214 1.6 8.0 0.00 0.00 0.00 46 1011.1
20260502191547 24 214 1.6 6.4 0.00 0.00 0.00 44 1011.1
20260502191341 24 213 1.6 6.4 0.00 0.00 0.00 42 1011.1
20260502191131 23 216 0.0 4.8 0.00 0.00 0.00 45 1011.2
20260502190918 23 216 0.0 4.8 0.00 0.00 0.00 44 1011.2
20260502190523 24 216 0.0 11.3 0.00 0.00 0.00 43 1011.3
20260502190320 24 217 0.0 11.3 0.00 0.00 0.00 47 1011.3
20260502190109 23 205 1.6 11.3 0.00 0.00 0.00 45 1011.3
20260502185859 23 205 1.6 11.3 0.00 0.00 0.00 45 1011.3
20260502185316 23 211 3.2 11.3 0.00 0.00 0.00 45 1011.3
20260502185113 23 196 3.2 11.3 0.00 0.00 0.00 43 1011.3
20260502184903 23 191 1.6 11.3 0.00 0.00 0.00 44 1011.3
20260502184701 23 212 1.6 9.7 0.00 0.00 0.00 46 1011.3
20260502184313 23 203 1.6 9.7 0.00 0.00 0.00 45 1011.3
20260502184105 23 221 1.6 9.7 0.00 0.00 0.00 45 1011.3
20260502183855 23 221 1.6 9.7 0.00 0.00 0.00 48 1011.3
20260502183651 23 222 1.6 9.7 0.00 0.00 0.00 50 1011.4
20260502183443 23 222 3.2 9.7 0.00 0.00 0.00 47 1011.4
20260502183235 23 214 1.6 9.7 0.00 0.00 0.00 46 1011.5
20260502183025 23 208 1.6 9.7 0.00 0.00 0.00 46 1011.4
20260502182822 23 205 1.6 9.7 0.00 0.00 0.00 46 1011.4
20260502182613 23 207 1.6 9.7 0.00 0.00 0.00 47 1011.4
20260502182403 23 207 1.6 9.7 0.00 0.00 0.00 47 1011.4
20260502182153 23 219 3.2 9.7 0.00 0.00 0.00 47 1011.4
20260502181951 23 219 3.2 9.7 0.00 0.00 0.00 48 1011.4
20260502181744 23 219 3.2 9.7 0.00 0.00 0.00 47 1011.4
20260502181536 22 200 3.2 12.9 0.00 0.00 0.00 47 1011.4
20260502181328 22 219 3.2 12.9 0.00 0.00 0.00 46 1011.4
20260502181117 22 223 3.2 12.9 0.00 0.00 0.00 47 1011.4
20260502180912 22 225 3.2 12.9 0.00 0.00 0.00 48 1011.4
20260502180701 22 211 3.2 12.9 0.00 0.00 0.00 48 1011.5
20260502180304 22 217 3.2 12.9 0.00 0.00 0.00 48 1011.4
20260502170516 20 207 0.0 4.8 0.00 0.00 0.00 55 1011.2
20260502170304 20 207 1.6 0.0 0.00 0.00 0.00 55 1011.3
20260502164150 18 219 0.0 9.7 0.00 0.00 0.00 63 1011.4
20260502163949 18 219 0.0 9.7 0.00 0.00 0.00 63 1011.4
20260502163744 17 223 0.0 0.0 0.00 0.00 0.00 65 1011.4
20260502163356 17 223 0.0 4.8 0.00 0.00 0.00 68 1011.4
20260502163001 16 223 0.0 4.8 0.00 0.00 0.00 73 1011.3
20260502162759 16 223 0.0 1.6 0.00 0.00 0.00 76 1011.2
20260502162555 16 223 0.0 8.0 0.00 0.00 0.00 77 1011.2
20260502162158 15 306 0.0 0.0 0.00 0.00 0.00 83 1011.2
20260502161949 14 306 0.0 0.0 0.00 0.00 0.00 84 1011.2
20260502161602 14 310 0.0 0.0 0.00 0.00 0.00 86 1011.2
20260502161353 13 310 0.0 0.0 0.00 0.00 0.00 87 1011.1
20260502161146 13 310 0.0 0.0 0.00 0.00 0.00 87 1011.1
20260502160937 13 310 0.0 0.0 0.00 0.00 0.00 88 1011.2
20260502160730 13 310 0.0 0.0 0.00 0.00 0.00 88 1011.1
20260502160522 13 310 0.0 0.0 0.00 0.00 0.00 88 1011.1
20260502160319 13 310 0.0 0.0 0.00 0.00 0.00 88 1011.1
20260502160107 13 310 0.0 0.0 0.00 0.00 0.00 88 1011.0
20260502151719 10 309 0.0 0.0 0.00 0.00 0.00 85 1010.9
20260502151321 10 309 0.0 0.0 0.00 0.00 0.00 85 1010.8
20260502151111 10 306 0.0 0.0 0.00 0.00 0.00 84 1010.9
20260502150909 10 306 0.0 0.0 0.00 0.00 0.00 84 1010.9
20260502150702 10 306 0.0 0.0 0.00 0.00 0.00 84 1010.9
20260502150453 10 306 0.0 0.0 0.00 0.00 0.00 84 1010.9
20260502150251 10 306 0.0 0.0 0.00 0.00 0.00 84 1010.9
20260502130551 10 306 0.0 0.0 0.00 0.00 0.00 84 1010.2
20260502130344 10 306 0.0 0.0 0.00 0.00 0.00 84 1010.2
20260502130134 10 306 0.0 0.0 0.00 0.00 0.00 84 1010.2
20260502123702 10 306 0.0 0.0 0.00 0.00 0.00 84 1010.3
20260502123449 10 306 0.0 0.0 0.00 0.00 0.00 84 1010.4
20260502123237 10 306 0.0 0.0 0.00 0.00 0.00 84 1010.3
20260502123027 10 306 0.0 0.0 0.00 0.00 0.00 84 1010.4
20260502122820 10 306 0.0 0.0 0.00 0.00 0.00 84 1010.5
20260502122618 10 306 0.0 0.0 0.00 0.00 0.00 84 1010.4
20260502122406 10 306 0.0 0.0 0.00 0.00 0.00 84 1010.5
20260502122013 10 306 0.0 0.0 0.00 0.00 0.00 84 1010.5
20260502121802 10 306 0.0 0.0 0.00 0.00 0.00 84 1010.4
20260502121408 10 306 0.0 0.0 0.00 0.00 0.00 84 1010.5
20260502121204 10 306 0.0 0.0 0.00 0.00 0.00 84 1010.4
20260502120953 10 306 0.0 0.0 0.00 0.00 0.00 84 1010.6
20260502120559 10 306 0.0 0.0 0.00 0.00 0.00 84 1010.5
20260502120355 10 306 0.0 0.0 0.00 0.00 0.00 84 1010.6
20260502120151 10 306 0.0 0.0 0.00 0.00 0.00 84 1010.5
20260502115759 10 306 0.0 0.0 0.00 0.00 0.00 84 1010.6
20260502115226 10 306 0.0 0.0 0.00 0.00 0.00 84 1010.6
20260502115015 10 306 0.0 0.0 0.00 0.00 0.00 84 1010.6
20260502114808 10 306 0.0 0.0 0.00 0.00 0.00 84 1010.6
20260502114600 10 306 0.0 0.0 0.00 0.00 0.00 84 1010.6
20260502114347 10 306 0.0 0.0 0.00 0.00 0.00 83 1010.6
20260502114137 10 306 0.0 0.0 0.00 0.00 0.00 83 1010.6
20260502113930 10 306 0.0 0.0 0.00 0.00 0.00 83 1010.6
20260502113724 10 306 0.0 0.0 0.00 0.00 0.00 83 1010.7
20260502113517 10 306 0.0 0.0 0.00 0.00 0.00 84 1010.6
20260502113257 10 306 0.0 0.0 0.00 0.00 0.00 84 1010.7
20260502113046 10 306 0.0 0.0 0.00 0.00 0.00 84 1010.7
20260502112842 10 306 0.0 0.0 0.00 0.00 0.00 83 1010.7
20260502112632 10 306 0.0 0.0 0.00 0.00 0.00 83 1010.7
20260502112419 10 306 0.0 0.0 0.00 0.00 0.00 83 1010.7
20260502112213 10 306 0.0 0.0 0.00 0.00 0.00 83 1010.7
20260502111825 10 306 0.0 0.0 0.00 0.00 0.00 83 1010.8
20260502111251 10 306 0.0 0.0 0.00 0.00 0.00 83 1010.8
20260502111043 10 306 0.0 0.0 0.00 0.00 0.00 83 1010.9
20260502110830 10 306 0.0 0.0 0.00 0.00 0.00 83 1010.9
20260502110619 10 306 0.0 0.0 0.00 0.00 0.00 83 1010.8
20260502110407 10 306 0.0 0.0 0.00 0.00 0.00 83 1010.9
20260502110203 10 306 0.0 0.0 0.00 0.00 0.00 83 1010.9
20260502105950 10 306 0.0 0.0 0.00 0.00 0.00 83 1010.9
20260502105737 10 306 0.0 0.0 0.00 0.00 0.00 83 1010.9
20260502105533 10 306 0.0 0.0 0.00 0.00 0.00 83 1011.0
20260502105320 10 306 0.0 0.0 0.00 0.00 0.00 83 1010.9
20260502104933 10 306 0.0 0.0 0.00 0.00 0.00 83 1011.0
20260502104725 10 306 0.0 0.0 0.00 0.00 0.00 83 1011.0
20260502104519 10 306 0.0 0.0 0.00 0.00 0.00 83 1010.9
20260502104316 10 306 0.0 0.0 0.00 0.00 0.00 83 1011.0
20260502104107 10 306 0.0 0.0 0.00 0.00 0.00 83 1010.9
20260502103906 10 306 0.0 0.0 0.00 0.00 0.00 83 1011.0
20260502103655 10 306 0.0 0.0 0.00 0.00 0.00 83 1011.0
20260502103445 10 306 0.0 0.0 0.00 0.00 0.00 83 1011.0
20260502103052 10 306 0.0 0.0 0.00 0.00 0.00 83 1011.0
20260502102841 10 306 0.0 0.0 0.00 0.00 0.00 82 1011.1
20260502102630 10 306 0.0 0.0 0.00 0.00 0.00 82 1011.2
20260502102239 10 306 0.0 0.0 0.00 0.00 0.00 82 1011.2
20260502102033 10 306 0.0 0.0 0.00 0.00 0.00 82 1011.2
20260502101635 10 306 0.0 0.0 0.00 0.00 0.00 82 1011.2
20260502101427 10 306 0.0 0.0 0.00 0.00 0.00 82 1011.2
20260502101219 10 306 0.0 0.0 0.00 0.00 0.00 82 1011.2
20260502100822 10 306 0.0 0.0 0.00 0.00 0.00 82 1011.2
20260502100431 10 306 0.0 0.0 0.00 0.00 0.00 82 1011.3
20260502100220 10 306 0.0 0.0 0.00 0.00 0.00 82 1011.2
20260502091426 10 306 0.0 0.0 0.00 0.00 0.00 81 1011.6
20260502091219 10 306 0.0 0.0 0.00 0.00 0.00 81 1011.7
20260502091013 10 306 0.0 0.0 0.00 0.00 0.00 81 1011.6
20260502090809 10 306 0.0 0.0 0.00 0.00 0.00 81 1011.6
20260502090419 10 306 0.0 0.0 0.00 0.00 0.00 80 1011.6
20260502071437 10 306 0.0 0.0 0.00 0.00 0.00 75 1011.8
20260502071236 10 306 0.0 0.0 0.00 0.00 0.00 75 1011.8
20260502071027 10 306 0.0 0.0 0.00 0.00 0.00 75 1011.7
20260502070814 10 306 0.0 0.0 0.00 0.00 0.00 75 1011.8
20260502070602 11 306 0.0 0.0 0.00 0.00 0.00 75 1011.8
20260502070358 11 306 0.0 0.0 0.00 0.00 0.00 74 1011.7
20260502070008 11 306 0.0 0.0 0.00 0.00 0.00 74 1011.7
20260502065755 11 306 0.0 0.0 0.00 0.00 0.00 74 1011.8
20260502065400 11 306 0.0 0.0 0.00 0.00 0.00 74 1011.7
20260502065004 11 306 0.0 0.0 0.00 0.00 0.00 74 1011.7
20260502064755 11 306 0.0 0.0 0.00 0.00 0.00 74 1011.6
20260502064544 11 306 0.0 0.0 0.00 0.00 0.00 74 1011.6
20260502064151 11 306 0.0 0.0 0.00 0.00 0.00 74 1011.7
20260502063800 11 306 0.0 0.0 0.00 0.00 0.00 74 1011.7
20260502063551 11 306 0.0 0.0 0.00 0.00 0.00 74 1011.7
20260502063349 11 306 0.0 0.0 0.00 0.00 0.00 74 1011.7
20260502063145 11 306 0.0 0.0 0.00 0.00 0.00 74 1011.7
20260502062750 11 306 0.0 0.0 0.00 0.00 0.00 74 1011.7
20260502062404 11 306 0.0 0.0 0.00 0.00 0.00 74 1011.6
20260502062202 11 306 0.0 0.0 0.00 0.00 0.00 74 1011.7
20260502061958 11 306 0.0 0.0 0.00 0.00 0.00 75 1011.7
20260502061750 11 306 0.0 0.0 0.00 0.00 0.00 75 1011.7
20260502061545 11 306 0.0 0.0 0.00 0.00 0.00 75 1011.7
20260502061343 11 306 0.0 0.0 0.00 0.00 0.00 75 1011.7
20260502061136 12 306 0.0 0.0 0.00 0.00 0.00 75 1011.7
20260502060932 12 306 0.0 0.0 0.00 0.00 0.00 75 1011.7
20260502060731 12 306 0.0 0.0 0.00 0.00 0.00 75 1011.7
20260502060524 12 306 0.0 0.0 0.00 0.00 0.00 75 1011.7
20260502060132 12 306 0.0 0.0 0.00 0.00 0.00 75 1011.7
20260502055739 12 306 0.0 0.0 0.00 0.00 0.00 75 1011.7
20260502055531 12 306 0.0 0.0 0.00 0.00 0.00 75 1011.7
20260502055328 12 306 0.0 0.0 0.00 0.00 0.00 75 1011.7
20260502055116 12 306 0.0 0.0 0.00 0.00 0.00 75 1011.7
20260502054907 12 306 0.0 0.0 0.00 0.00 0.00 75 1011.7
20260502054512 12 306 0.0 0.0 0.00 0.00 0.00 75 1011.7
20260502054301 12 306 0.0 0.0 0.00 0.00 0.00 75 1011.8
20260502054050 12 306 0.0 0.0 0.00 0.00 0.00 75 1011.8
20260502053845 12 306 0.0 0.0 0.00 0.00 0.00 75 1011.8
20260502053644 12 306 0.0 0.0 0.00 0.00 0.00 75 1011.8
20260502053431 12 306 0.0 0.0 0.00 0.00 0.00 74 1011.7
20260502053224 12 306 0.0 0.0 0.00 0.00 0.00 74 1011.7
20260502053013 12 306 0.0 0.0 0.00 0.00 0.00 74 1011.7
20260502052807 12 306 0.0 0.0 0.00 0.00 0.00 74 1011.7
20260502052558 13 306 0.0 0.0 0.00 0.00 0.00 74 1011.7
20260502052346 13 306 0.0 0.0 0.00 0.00 0.00 74 1011.7
20260502052140 13 306 0.0 0.0 0.00 0.00 0.00 74 1011.7
20260502051930 13 306 0.0 0.0 0.00 0.00 0.00 74 1011.7
20260502051726 13 306 0.0 0.0 0.00 0.00 0.00 74 1011.7
20260502051522 13 306 0.0 0.0 0.00 0.00 0.00 74 1011.6
20260502051315 13 306 0.0 0.0 0.00 0.00 0.00 74 1011.6
20260502051110 13 306 0.0 0.0 0.00 0.00 0.00 74 1011.7
20260502050857 13 306 0.0 0.0 0.00 0.00 0.00 74 1011.7
20260502050645 13 306 0.0 0.0 0.00 0.00 0.00 74 1011.7
20260502050438 13 306 0.0 0.0 0.00 0.00 0.00 74 1011.7
20260502050230 13 306 0.0 0.0 0.00 0.00 0.00 74 1011.7
20260502050025 13 306 0.0 0.0 0.00 0.00 0.00 73 1011.8
20260502045812 13 306 0.0 0.0 0.00 0.00 0.00 73 1011.7
20260502045424 13 306 0.0 0.0 0.00 0.00 0.00 73 1011.7
20260502045219 13 306 0.0 0.0 0.00 0.00 0.00 73 1011.7
20260502045017 13 306 0.0 0.0 0.00 0.00 0.00 73 1011.7
20260502044814 14 306 0.0 0.0 0.00 0.00 0.00 73 1011.6
20260502044608 14 306 0.0 0.0 0.00 0.00 0.00 73 1011.6
20260502044406 14 306 0.0 0.0 0.00 0.00 0.00 73 1011.5
20260502044200 14 306 0.0 0.0 0.00 0.00 0.00 73 1011.5
20260502043952 14 306 0.0 0.0 0.00 0.00 0.00 73 1011.5
20260502043603 14 306 0.0 0.0 0.00 0.00 0.00 72 1011.5
20260502043212 14 306 0.0 0.0 0.00 0.00 0.00 72 1011.5
20260502043009 15 306 0.0 0.0 0.00 0.00 0.00 72 1011.5
20260502042759 15 306 0.0 0.0 0.00 0.00 0.00 72 1011.5
20260502042554 15 306 0.0 0.0 0.00 0.00 0.00 72 1011.4
20260502042342 15 306 0.0 0.0 0.00 0.00 0.00 71 1011.5
20260502042130 15 306 0.0 0.0 0.00 0.00 0.00 71 1011.4
20260502041734 15 306 0.0 0.0 0.00 0.00 0.00 71 1011.4
20260502041527 15 306 0.0 0.0 0.00 0.00 0.00 71 1011.4
20260502041316 15 306 0.0 0.0 0.00 0.00 0.00 71 1011.3
20260502041107 15 306 0.0 0.0 0.00 0.00 0.00 70 1011.2
20260502040902 15 306 0.0 0.0 0.00 0.00 0.00 70 1011.3
20260502040656 15 306 0.0 0.0 0.00 0.00 0.00 70 1011.3
20260502040448 15 306 0.0 0.0 0.00 0.00 0.00 70 1011.2
20260502040236 15 306 0.0 0.0 0.00 0.00 0.00 70 1011.2
20260502040024 16 306 0.0 0.0 0.00 0.00 0.00 69 1011.2
20260502035812 16 306 0.0 0.0 0.00 0.00 0.00 69 1011.1
20260502035610 16 306 0.0 0.0 0.00 0.00 0.00 69 1011.1
20260502035407 16 306 0.0 0.0 0.00 0.00 0.00 69 1011.1
20260502035155 16 306 0.0 0.0 0.00 0.00 0.00 68 1011.1
20260502034949 16 306 0.0 0.0 0.00 0.00 0.00 68 1011.0
20260502034738 16 306 0.0 0.0 0.00 0.00 0.00 68 1011.0
20260502034531 16 306 0.0 0.0 0.00 0.00 0.00 68 1010.9
20260502034329 16 306 0.0 0.0 0.00 0.00 0.00 68 1010.9
20260502034124 16 306 0.0 0.0 0.00 0.00 0.00 68 1010.9
20260502033912 16 306 0.0 0.0 0.00 0.00 0.00 67 1010.9
20260502033702 16 306 0.0 0.0 0.00 0.00 0.00 67 1010.9
20260502033455 17 306 0.0 0.0 0.00 0.00 0.00 67 1010.8
20260502033249 17 306 0.0 0.0 0.00 0.00 0.00 66 1010.8
20260502032901 17 306 0.0 0.0 0.00 0.00 0.00 66 1010.7
20260502032507 17 306 0.0 0.0 0.00 0.00 0.00 66 1010.7
20260502032259 17 306 0.0 0.0 0.00 0.00 0.00 66 1010.7
20260502032046 17 306 0.0 0.0 0.00 0.00 0.00 65 1010.7
20260502031842 17 306 0.0 0.0 0.00 0.00 0.00 65 1010.7
20260502031636 17 306 0.0 0.0 0.00 0.00 0.00 65 1010.6
20260502031426 17 306 0.0 0.0 0.00 0.00 0.00 65 1010.7
20260502031215 18 306 0.0 0.0 0.00 0.00 0.00 64 1010.6
20260502031011 18 306 0.0 0.0 0.00 0.00 0.00 64 1010.6
20260502030801 18 306 0.0 0.0 0.00 0.00 0.00 64 1010.5
20260502030600 18 306 0.0 0.0 0.00 0.00 0.00 64 1010.6
20260502030204 18 306 0.0 0.0 0.00 0.00 0.00 63 1010.5
20260502025812 18 306 0.0 0.0 0.00 0.00 0.00 63 1010.5
20260502025604 18 306 0.0 0.0 0.00 0.00 0.00 63 1010.4
20260502025356 18 306 0.0 0.0 0.00 0.00 0.00 63 1010.4
20260502025149 18 306 0.0 0.0 0.00 0.00 0.00 63 1010.4
20260502024947 18 306 0.0 0.0 0.00 0.00 0.00 63 1010.5
20260502024557 19 306 0.0 0.0 0.00 0.00 0.00 62 1010.5
20260502024201 19 306 0.0 0.0 0.00 0.00 0.00 62 1010.4
20260502023812 19 306 0.0 0.0 0.00 0.00 0.00 62 1010.5
20260502023605 19 306 0.0 0.0 0.00 0.00 0.00 61 1010.4
20260502023357 20 306 0.0 0.0 0.00 0.00 0.00 61 1010.4
20260502022819 20 306 0.0 0.0 0.00 0.00 0.00 60 1010.4
20260502022614 20 306 0.0 0.0 0.00 0.00 0.00 59 1010.4
20260502022409 20 306 0.0 0.0 0.00 0.00 0.00 59 1010.4
20260502022159 20 306 0.0 0.0 0.00 0.00 0.00 59 1010.4
20260502021950 20 306 0.0 0.0 0.00 0.00 0.00 58 1010.4
20260502021737 20 306 0.0 0.0 0.00 0.00 0.00 57 1010.4
20260502021526 21 306 0.0 0.0 0.00 0.00 0.00 57 1010.4
20260502021314 21 306 0.0 0.0 0.00 0.00 0.00 57 1010.4
20260502021108 21 306 0.0 0.0 0.00 0.00 0.00 57 1010.5
20260502020903 21 306 0.0 0.0 0.00 0.00 0.00 56 1010.4
20260502020650 21 306 0.0 0.0 0.00 0.00 0.00 56 1010.4
20260502020111 21 306 0.0 0.0 0.00 0.00 0.00 54 1010.4
20260502015909 21 306 0.0 0.0 0.00 0.00 0.00 54 1010.4
20260502015701 22 306 0.0 0.0 0.00 0.00 0.00 54 1010.4
20260502015453 22 306 0.0 0.0 0.00 0.00 0.00 53 1010.4
20260502015247 22 306 0.0 0.0 0.00 0.00 0.00 53 1010.4
20260502015036 22 306 0.0 1.6 0.00 0.00 0.00 50 1010.3
20260502014825 22 306 0.0 1.6 0.00 0.00 0.00 51 1010.4
20260502014622 22 306 0.0 1.6 0.00 0.00 0.00 50 1010.3
20260502014410 22 306 0.0 0.0 0.00 0.00 0.00 50 1010.3
20260502014200 22 306 0.0 0.0 0.00 0.00 0.00 51 1010.3
20260502013955 22 306 0.0 1.6 0.00 0.00 0.00 49 1010.3
20260502013753 22 306 0.0 1.6 0.00 0.00 0.00 48 1010.3